Location: Pedimozza
(42.0500°N, 9.3500°E)
Time: 12:09:18
(UTC+00:00)

Meteor 1-25 Rocket - Pass Details

Date: 19 August 2019
Orbit: 838 x 890 km, 81.2° (Epoch: 15 September)

Event Time Altitude Azimuth Distance (km) Brightness Sun altitude
Rises 18:55:40 0° 178° (S) 3,419 7.1 -7.4°
Reaches altitude 10° 18:58:05 10° 176° (S) 2,494 6.4 -7.8°
Maximum altitude 19:03:40 64° 96° (E) 965 4.3 -8.7°
Drops below altitude 10° 19:09:23 10° 16° (NNE) 2,545 6.8 -9.7°
Sets 19:11:52 0° 14° (NNE) 3,495 7.6 -10.1°
